Regional Weather Roundup
Issued by NWS Kansas City/Pleasant Hill, MO

Home | Current Version | Previous Version | Text Only | Print | Product List | Glossary On
Versions: 1 2 3 4 5 6 7 8 9 10 11 12 13 14 15 16 17 18 19 20 21 22 23 24 25 26 27 28 29 30 31 32 33 34 35 36 37 38 39 40 41 42 43 44 45 46 47 48 49 50
000
ASUS43 KEAX 180311
RWREAX

WEATHER ROUNDUP FOR EASTERN KANSAS AND NORTHWEST MISSOURI
NATIONAL WEATHER SERVICE KANSAS CITY/PLEASANT HILL MO
1000 PM CDT FRI APR 17 2015

KSZ040-057-103>105-MOZ028-029-037-043-180400-
...KANSAS CITY METROPOLITAN AREA...

CITY           SKY/WX    TMP DP  RH WIND       PRES   REMARKS
K.C. INTL      CLOUDY    63  59  87 NE7       29.99R
K.C. DOWNTOWN  CLOUDY    69  60  73 CALM      29.97R
LEES SUMMIT    CLOUDY    71  57  61 CALM      29.98R
OLATHE - IXD   CLOUDY    65  57  75 CALM      29.99R
OLATHE - OJC   CLOUDY    66  58  75 CALM      29.98R
LAWRENCE       CLOUDY    62  59  90 CALM      29.98R

$$

MOZ001>008-011>017-020>025-030>033-038>040-044>046-053-054-180400-
...NORTHERN AND CENTRAL MISSOURI...

CITY           SKY/WX    TMP DP  RH WIND       PRES   REMARKS
ST. JOSEPH     CLOUDY    66  57  72 CALM      29.98F
MOSBY          CLOUDY    66  59  77 CALM      29.99R
WARRENSBURG    MOCLDY    70  54  56 E3        29.98R
WHITEMAN AFB   NOT AVBL
CLINTON        MOCLDY    64  59  82 MISG      29.98R
SEDALIA        MOCLDY    70  55  59 E7        29.99R
WARSAW         NOT AVBL
MARSHALL       MOCLDY    72  59  64 E6        29.99R
CHILLICOTHE      N/A     66  60  81 CALM      30.00R
MOBERLY        PTCLDY    66  54  63 E8        30.01S
KIRKSVILLE     PTCLDY    69  55  60 SE6       30.01S

$$

MOZ041-047>049-056>058-063>065-088>090-097-180400-
...EASTERN AND SOUTHERN MISSOURI...

CITY           SKY/WX    TMP DP  RH WIND       PRES   REMARKS
ST. LOUIS INTL PTCLDY    69  56  62 E5        30.02R
SPIRIT OF STL  PTCLDY    64  57  78 CALM      30.01R
COLUMBIA       PTCLDY    68  56  65 E9        29.99S
JEFFERSON CITY MOCLDY    74  55  51 E9        29.98R
MEXICO         MOCLDY    68  61  77 E3        30.01R
HANNIBAL       PTCLDY    70  48  46 SE6       30.01F
ROLLA          CLOUDY    68  55  63 E7        29.98R
LEBANON        CLEAR     66  55  68 S5        30.02R
OSAGE BEACH    PTCLDY    70  52  52 SE3       29.99R
SPRINGFIELD    MOCLDY    67  58  72 S6        30.00R
BRANSON        CLOUDY    64  61  88 CALM      30.03R
NEVADA         MOCLDY    66  59  77 E5        29.99R
JOPLIN         CLOUDY    71  60  68 SE7       29.98R
WEST PLAINS    MOCLDY    64  60  87 S5        30.03R

$$

IAZ060-094-KSZ022-034>040-054-083-096-NEZ052-066-093-180400-
...KANSAS...SOUTHEAST NEBRASKA AND IOWA...

CITY           SKY/WX    TMP DP  RH WIND       PRES   REMARKS
TOPEKA         CLOUDY    64  57  78 CALM      29.98R
MANHATTAN      CLOUDY    66  58  75 CALM      29.96R
EMPORIA        CLOUDY    62  58  86 E6        29.97R
CHANUTE        CLOUDY    65  61  87 E3        29.97R
WICHITA        CLOUDY    64  57  78 S5        29.97R
OMAHA          MOCLDY    68  54  60 SE3       29.99R
LINCOLN        CLOUDY    65  57  75 W3        30.00R
FALLS CITY     CLOUDY    65  56  72 CALM      29.98R
LAMONI         LGT RAIN  69  55  60 NE6       30.00R
DES MOINES     MOCLDY    70  51  51 CALM      30.01R

$$




USA.gov is the U.S. government's official web portal to all federal, state and local government web resources and services.